Location: Shannon
(40.5500°S, 175.4167°E)
Time: 21:34:09
(UTC+00:00)

ALOS - Pass Details

Date: 17 November 2025
Orbit: 662 x 663 km, 98.1° (Epoch: 14 December)

Event Time Altitude Azimuth Distance (km) Brightness Sun altitude
Exits shadow 14:38:36 47° 307° (NW) 887 2.4 -20.3°
Maximum altitude 14:39:12 51° 280° (W) 849 2.4 -20.2°
Drops below altitude 10° 14:43:42 10° 203° (SSW) 2,115 5.1 -19.6°
Sets 14:46:01 0° 198° (SSW) 3,037 6.0 -19.4°
